This is the latest recevied weather packets stored in our database for station/object F4FEB-14. If no packets are shown the sender has not sent any weather packets the latest 10 day(s).
| Time | Temp. | Humidity | Pressure | Rain* | Wind** | Luminosity | Snow |
|---|---|---|---|---|---|---|---|
| 1777308104 | 23.33° C | 36% | 1017.9 hPa | 0 mm | - | - | - |
| 1777307803 | 23.33° C | 37% | 1018 hPa | 0 mm | - | - | - |
| 1777307202 | 23.33° C | 35% | 1018.1 hPa | 0 mm | - | - | - |
| 1777306901 | 23.33° C | 36% | 1018.1 hPa | 0 mm | - | - | - |
| 1777306599 | 23.89° C | 36% | 1018 hPa | 0 mm | - | - | - |
| 1777306297 | 23.89° C | 34% | 1018 hPa | 0 mm | - | - | - |
| 1777305994 | 23.33° C | 34% | 1018 hPa | 0 mm | - | - | - |
| 1777305693 | 23.89° C | 32% | 1018.1 hPa | 0 mm | - | - | - |
| 1777305391 | 24.44° C | 34% | 1018.1 hPa | 0 mm | - | - | - |
| 1777304789 | 25° C | 35% | 1018.1 hPa | 0 mm | - | - | - |
| 1777304488 | 24.44° C | 34% | 1018.1 hPa | 0 mm | - | - | - |
| 1777304187 | 25° C | 33% | 1018.1 hPa | 0 mm | - | - | - |
| 1777303886 | 25° C | 33% | 1018.2 hPa | 0 mm | - | - | - |
| 1777303585 | 23.89° C | 31% | 1018.2 hPa | 0 mm | - | - | - |
| 1777303284 | 23.89° C | 30% | 1018.4 hPa | 0 mm | - | - | - |
| 1777302983 | 24.44° C | 32% | 1018.3 hPa | 0 mm | - | - | - |
| 1777302682 | 25.56° C | 29% | 1018.4 hPa | 0 mm | - | - | - |
| 1777302080 | 26.11° C | 31% | 1018.5 hPa | 0 mm | - | - | - |
| 1777301780 | 26.11° C | 32% | 1018.5 hPa | 0 mm | - | - | - |
| 1777301478 | 25.56° C | 32% | 1018.5 hPa | 0 mm | - | - | - |
| 1777301178 | 25° C | 31% | 1018.5 hPa | 0 mm | - | - | - |
| 1777300877 | 25.56° C | 32% | 1018.6 hPa | 0 mm | - | - | - |
| 1777300576 | 25° C | 32% | 1018.6 hPa | 0 mm | - | - | - |
| 1777300275 | 25° C | 32% | 1018.7 hPa | 0 mm | - | - | - |
| 1777299973 | 25° C | 32% | 1018.7 hPa | 0 mm | - | - | - |
* Rain latest hour (hover to see other rain measurements)
** Current wind speed in m/s (hover to see current wind gust speed)